This demonstration page uses our WeatherBlox Daily Observations layout. Learn more.

Left ArrowRight Arrow

31.31129, -92.44514

Hourly Observations for July 8, 2022

Temp ( °F °C ) Dew Point ( °F °C ) Humidity (%) Winds ( mph kmh ) Pressure ( in mb ) Visibility ( mi km ) Precip ( " mm )
12:53 am 00:53 Clear 81 27.2 77 25 88 88 Calm 29.98 1015 10 16 0.00 0.00
1:53 am 01:53 Clear 80 26.7 77 25 90 90 SSE 3 6 29.99 1016 10 16 0.00 0.00
2:53 am 02:53 Clear 79 26.1 76 24.4 90 90 S 5 7 29.98 1015 10 16 0.00 0.00
3:53 am 03:53 Clear 80 26.7 76 24.4 87 87 Calm 29.99 1016 10 16 0.00 0.00
4:53 am 04:53 Clear 79 26.1 75 23.9 88 88 S 3 6 29.99 1016 9 14 0.00 0.00
5:53 am 05:53 Clear 78 25.6 75 23.9 90 90 Calm 30.01 1016 9 14 0.00 0.00
6:53 am 06:53 Sunny 79 26.1 76 24.4 90 90 Calm 30.01 1016 7 11 0.00 0.00
7:53 am 07:53 Sunny 82 27.8 76 24.4 82 82 NW 3 6 30.04 1017 9 14 0.00 0.00
8:53 am 08:53 Sunny 85 29.4 77 25 77 77 W 5 7 30.05 1018 10 16 0.00 0.00
9:53 am 09:53 Sunny 89 31.7 75 23.9 63 63 SW 7 11 30.05 1018 10 16 0.00 0.00
10:53 am 10:53 Sunny 92 33.3 74 23.3 56 56 S 7 11 30.05 1018 10 16 0.00 0.00
11:53 am 11:53 Sunny 94 34.4 74 23.3 52 52 SW 8 13 30.04 1017 10 16 0.00 0.00
12:53 pm 12:53 Sunny 95 35 73 22.8 49 49 SSW 6 9 30.03 1017 10 16 0.00 0.00
1:53 pm 13:53 Sunny 97 36.1 72 22.2 45 45 WSW 3 6 30.01 1016 10 16 0.00 0.00
2:53 pm 14:53 Sunny 98 36.7 72 22.2 43 43 VRB 5 7 29.99 1016 10 16 0.00 0.00
3:53 pm 15:53 Sunny 99 37.2 71 21.7 41 41 VRB 3 6 29.98 1015 10 16 0.00 0.00
4:53 pm 16:53 Sunny 99 37.2 70 21.1 39 39 Calm 29.97 1015 10 16 0.00 0.00
5:53 pm 17:53 Sunny 98 36.7 73 22.8 45 45 SSE 8 13 29.95 1014 10 16 0.00 0.00
6:53 pm 18:53 Sunny 96 35.6 73 22.8 47 47 SSE 9 15 29.94 1014 10 16 0.00 0.00
7:53 pm 19:53 Sunny 93 33.9 74 23.3 54 54 SSE 9 15 29.94 1014 10 16 0.00 0.00
8:53 pm 20:53 Mostly Clear 88 31.1 76 24.4 68 68 SSE 3 6 29.95 1014 10 16 0.00 0.00
9:53 pm 21:53 Mostly Clear 87 30.6 75 23.9 67 67 SSE 5 7 29.98 1015 10 16 0.00 0.00
10:53 pm 22:53 Clear 85 29.4 75 23.9 72 72 S 6 9 29.99 1016 10 16 0.00 0.00
11:53 pm 23:53 Clear 85 29.4 76 24.4 75 75 S 5 7 30.01 1016 10 16 0.00 0.00

Powered by AerisWeather